Overview Statistics Trail Chart Weather Telemetry Raw packets
 

This is the latest recevied weather packets stored in our database for station/object W7BTL. If no packets are shown the sender has not sent any weather packets the latest 10 day(s).

<< 11 12 13 14 15 16 17 >>
Time Temp. Humidity Pressure Rain* Wind** Luminosity Snow
1788578132 22.22° C 75% 1011.9 hPa 0 mm - 0 W/m² -
1788577831 22.22° C 74% 1011.6 hPa 0 mm - 0 W/m² -
1788577527 22.22° C 73% 1011.8 hPa 0 mm - 0 W/m² -
1788577226 22.22° C 74% 1011.8 hPa 0 mm - 0 W/m² -
1788576922 22.22° C 73% 1011.6 hPa 0 mm - 0 W/m² -
1788576618 22.22° C 73% 1011.5 hPa 0 mm - 0 W/m² -
1788576313 22.78° C 72% 1011.5 hPa 0 mm - 0 W/m² -
1788576008 22.78° C 72% 1011.6 hPa 0 mm - 0 W/m² -
1788575703 22.78° C 71% 1011.6 hPa 0 mm - 0 W/m² -
1788575402 22.78° C 70% 1011.6 hPa 0 mm - 0 W/m² -
1788575097 23.33° C 69% 1011.5 hPa 0 mm - 1 W/m² -
1788574793 23.33° C 68% 1011.4 hPa 0 mm - 2 W/m² -
1788574492 23.33° C 67% 1011.6 hPa 0 mm - 4 W/m² -
1788574188 23.89° C 66% 1011.3 hPa 0 mm - 7 W/m² -
1788573888 23.89° C 65% 1011.5 hPa 0 mm - 10 W/m² -
1788573587 23.89° C 64% 1011.6 hPa 0 mm - 13 W/m² -
1788573286 24.44° C 64% 1011.5 hPa 0 mm - 17 W/m² -
1788572985 24.44° C 63% 1011.6 hPa 0 mm - 20 W/m² -
1788572681 25° C 62% 1011.5 hPa 0 mm - 23 W/m² -
1788572376 25° C 61% 1011.5 hPa 0 mm - 26 W/m² -
1788572073 25.56° C 59% 1011.7 hPa 0 mm - 29 W/m² -
1788571767 26.11° C 57% 1011.5 hPa 0 mm - 40 W/m² -
1788571462 26.67° C 56% 1011.7 hPa 0 mm - 49 W/m² -
1788571159 26.67° C 55% 1011.6 hPa 0 mm - 57 W/m² -
1788570855 26.67° C 55% 1011.7 hPa 0 mm - 64 W/m² -

* Rain latest hour (hover to see other rain measurements)
** Current wind speed in m/s (hover to see current wind gust speed)